BAW98T CYYZ-EGLL

Flight info

Callsign BAW98T
Flight time N/A
Altitude 41000
Route VERDO7 IPTOS Q921 AGLUK DCT BAREE N581A TUDEP/M084F400 NATT NETKI/N0485F410 DCT BOFUM Q37 MALUD Q38 NUGRA
Aircraft B789/H-SADE1E2E3FGHIJ1J3J4J5J6LM1M2OP2RWXYZ/LB1D1G1

Departure

Time N/A
Airport Toronto Pearson International Airport (CYYZ)

Arrival

Time 2026-05-05 23:29
Airport London Heathrow Airport (EGLL)
Time Latitude Longitude Altitude Speed Heading
2026-05-05 22:48 53.48490 -3.95483 41041 ft 402 kts 109°
2026-05-05 22:48 53.46681 -3.86580 41052 ft 406 kts 110°
2026-05-05 22:49 53.44833 -3.77615 41076 ft 406 kts 110°
2026-05-05 22:49 53.42974 -3.68685 41064 ft 404 kts 110°
2026-05-05 22:50 53.41060 -3.59833 41050 ft 402 kts 119°
2026-05-05 22:50 53.38640 -3.51466 41052 ft 403 kts 116°
2026-05-05 22:51 53.36220 -3.42997 41056 ft 403 kts 117°
2026-05-05 22:51 53.33772 -3.34560 41061 ft 403 kts 117°
2026-05-05 22:52 53.31334 -3.26128 41065 ft 402 kts 117°
2026-05-05 22:52 53.28885 -3.17722 41066 ft 402 kts 117°
2026-05-05 22:53 53.26431 -3.09309 41070 ft 402 kts 117°
2026-05-05 22:53 53.23971 -3.00916 41073 ft 402 kts 117°
2026-05-05 22:54 53.21505 -2.92528 41070 ft 402 kts 117°
2026-05-05 22:54 53.19054 -2.84222 41069 ft 401 kts 117°
2026-05-05 22:55 53.16569 -2.75830 41059 ft 401 kts 118°
2026-05-05 22:55 53.14113 -2.67564 41054 ft 401 kts 118°
2026-05-05 22:55 53.12879 -2.63422 40729 ft 400 kts 118°
2026-05-05 22:56 53.11642 -2.59279 40403 ft 398 kts 118°
2026-05-05 22:56 53.10415 -2.55174 40102 ft 395 kts 118°
2026-05-05 22:56 53.09197 -2.51106 39820 ft 392 kts 118°
2026-05-05 22:56 53.07983 -2.47058 39535 ft 389 kts 118°
2026-05-05 22:57 53.06776 -2.43040 39265 ft 386 kts 118°
2026-05-05 22:57 53.05577 -2.39060 38989 ft 384 kts 118°
2026-05-05 22:57 53.04382 -2.35097 38721 ft 381 kts 118°
2026-05-05 22:57 53.03061 -2.31317 38330 ft 376 kts 134°
2026-05-05 22:58 53.01156 -2.28464 37977 ft 367 kts 151°
2026-05-05 22:58 52.99010 -2.26191 37581 ft 365 kts 150°
2026-05-05 22:58 52.96866 -2.23967 37274 ft 362 kts 150°
2026-05-05 22:58 52.94737 -2.21751 36929 ft 359 kts 150°
2026-05-05 22:59 52.92660 -2.19567 36633 ft 357 kts 150°
2026-05-05 22:59 52.90568 -2.17368 36330 ft 355 kts 150°
2026-05-05 22:59 52.88491 -2.15198 36007 ft 352 kts 150°
2026-05-05 22:59 52.86422 -2.13042 35698 ft 350 kts 150°
2026-05-05 23:00 52.82325 -2.08769 35098 ft 346 kts 150°
2026-05-05 23:00 52.80299 -2.06660 34786 ft 344 kts 150°
2026-05-05 23:00 52.78275 -2.04557 34500 ft 342 kts 150°
2026-05-05 23:01 52.76269 -2.02474 34204 ft 340 kts 149°
2026-05-05 23:01 52.74271 -2.00402 33895 ft 338 kts 149°
2026-05-05 23:01 52.72288 -1.98347 33549 ft 336 kts 149°
2026-05-05 23:01 52.70337 -1.96327 33218 ft 334 kts 149°
2026-05-05 23:02 52.68372 -1.94295 32867 ft 333 kts 149°
2026-05-05 23:02 52.66392 -1.92251 32544 ft 331 kts 149°
2026-05-05 23:02 52.64449 -1.90247 32210 ft 329 kts 149°
2026-05-05 23:02 52.62518 -1.88256 31891 ft 327 kts 149°
2026-05-05 23:03 52.60617 -1.86299 31581 ft 325 kts 149°
2026-05-05 23:03 52.58704 -1.84331 31265 ft 323 kts 150°
2026-05-05 23:03 52.56806 -1.82381 30964 ft 321 kts 150°
2026-05-05 23:03 52.54916 -1.80442 30673 ft 319 kts 150°
2026-05-05 23:04 52.53038 -1.78516 30365 ft 317 kts 150°
2026-05-05 23:04 52.51170 -1.76603 30070 ft 315 kts 150°
2026-05-05 23:04 52.49317 -1.74707 29715 ft 313 kts 150°
2026-05-05 23:04 52.47475 -1.72824 29372 ft 311 kts 150°
2026-05-05 23:05 52.45643 -1.70953 29021 ft 309 kts 150°
2026-05-05 23:05 52.43822 -1.69095 28684 ft 307 kts 150°
2026-05-05 23:05 52.42012 -1.67250 28339 ft 305 kts 150°
2026-05-05 23:05 52.40211 -1.65416 28007 ft 304 kts 150°
2026-05-05 23:06 52.38420 -1.63596 27658 ft 302 kts 150°
2026-05-05 23:06 52.36640 -1.61787 27330 ft 300 kts 151°
2026-05-05 23:06 52.34873 -1.59993 27002 ft 298 kts 151°
2026-05-05 23:06 52.33112 -1.58207 26675 ft 297 kts 151°
2026-05-05 23:07 52.31364 -1.56436 26328 ft 295 kts 151°
2026-05-05 23:07 52.29621 -1.54671 26004 ft 294 kts 151°
2026-05-05 23:07 52.27889 -1.52920 25675 ft 292 kts 151°
2026-05-05 23:07 52.26188 -1.51201 25363 ft 291 kts 151°
2026-05-05 23:08 52.24450 -1.49447 25032 ft 289 kts 151°
2026-05-05 23:08 52.22763 -1.47745 24724 ft 288 kts 151°
2026-05-05 23:08 52.21115 -1.45892 24374 ft 290 kts 140°
2026-05-05 23:08 52.19626 -1.43691 24061 ft 288 kts 143°
2026-05-05 23:09 52.18087 -1.41615 23737 ft 287 kts 143°
2026-05-05 23:09 52.16558 -1.39521 23397 ft 286 kts 142°
2026-05-05 23:09 52.15056 -1.37407 23029 ft 285 kts 142°
2026-05-05 23:09 52.13561 -1.35308 22685 ft 283 kts 142°
2026-05-05 23:10 52.12070 -1.33233 22329 ft 281 kts 142°
2026-05-05 23:10 52.10584 -1.31170 21975 ft 280 kts 142°
2026-05-05 23:10 52.09108 -1.29118 21620 ft 278 kts 142°
2026-05-05 23:10 52.07642 -1.27079 21296 ft 277 kts 142°
2026-05-05 23:11 52.06179 -1.25047 20955 ft 275 kts 142°
2026-05-05 23:11 52.04727 -1.23034 20621 ft 274 kts 142°
2026-05-05 23:11 52.03278 -1.21028 20283 ft 273 kts 142°
2026-05-05 23:11 52.01841 -1.19037 19966 ft 271 kts 142°
2026-05-05 23:12 52.00407 -1.17054 19624 ft 270 kts 142°
2026-05-05 23:12 51.98983 -1.15086 19305 ft 268 kts 142°
2026-05-05 23:12 51.97565 -1.13129 18974 ft 267 kts 142°
2026-05-05 23:12 51.96152 -1.11179 18675 ft 266 kts 142°
2026-05-05 23:13 51.94748 -1.09244 18344 ft 264 kts 142°
2026-05-05 23:13 51.93348 -1.07314 17975 ft 263 kts 142°
2026-05-05 23:13 51.91954 -1.05394 17611 ft 262 kts 142°
2026-05-05 23:13 51.90570 -1.03490 17245 ft 261 kts 142°
2026-05-05 23:14 51.89188 -1.01590 16882 ft 260 kts 142°
2026-05-05 23:14 51.87810 -0.99697 16520 ft 259 kts 142°
2026-05-05 23:14 51.86441 -0.97818 16168 ft 258 kts 142°
2026-05-05 23:14 51.85159 -0.95792 15734 ft 260 kts 123°
2026-05-05 23:15 51.84419 -0.93124 15412 ft 258 kts 115°
2026-05-05 23:15 51.83607 -0.90579 15061 ft 258 kts 119°
2026-05-05 23:15 51.82771 -0.88026 14731 ft 257 kts 117°
2026-05-05 23:15 51.81972 -0.85411 14399 ft 256 kts 116°
2026-05-05 23:16 51.81196 -0.82825 14076 ft 255 kts 116°
2026-05-05 23:16 51.80413 -0.80266 13773 ft 254 kts 117°
2026-05-05 23:16 51.79637 -0.77748 13420 ft 253 kts 116°
2026-05-05 23:16 51.78856 -0.75208 13086 ft 251 kts 116°
2026-05-05 23:17 51.78082 -0.72686 12770 ft 250 kts 116°
2026-05-05 23:17 51.77310 -0.70178 12456 ft 249 kts 116°
2026-05-05 23:17 51.76541 -0.67679 12148 ft 247 kts 116°
2026-05-05 23:17 51.75776 -0.65199 11815 ft 247 kts 116°
2026-05-05 23:18 51.75013 -0.62728 11520 ft 245 kts 115°
2026-05-05 23:18 51.74252 -0.60266 11211 ft 243 kts 115°
2026-05-05 23:18 51.73497 -0.57828 10927 ft 242 kts 116°
2026-05-05 23:18 51.72464 -0.55753 10529 ft 245 kts 149°
2026-05-05 23:19 51.70896 -0.54845 10235 ft 240 kts 177°
2026-05-05 23:19 51.69234 -0.54799 9909 ft 238 kts 180°
2026-05-05 23:19 51.67579 -0.54702 9606 ft 237 kts 179°
2026-05-05 23:19 51.65935 -0.54598 9317 ft 236 kts 179°
2026-05-05 23:20 51.64298 -0.54506 9025 ft 234 kts 180°
2026-05-05 23:20 51.62714 -0.54935 8618 ft 232 kts 206°
2026-05-05 23:20 51.61387 -0.56297 8318 ft 225 kts 229°
2026-05-05 23:20 51.60759 -0.57606 8141 ft 221 kts 242°
2026-05-05 23:21 51.60243 -0.59885 7824 ft 216 kts 264°
2026-05-05 23:21 51.60111 -0.62275 7533 ft 214 kts 267°
2026-05-05 23:21 51.59981 -0.64657 7265 ft 213 kts 267°
2026-05-05 23:21 51.59844 -0.67030 6970 ft 213 kts 266°
2026-05-05 23:22 51.59692 -0.69398 6697 ft 212 kts 265°
2026-05-05 23:22 51.59542 -0.71768 6414 ft 212 kts 265°
2026-05-05 23:22 51.59396 -0.74124 6120 ft 212 kts 265°
2026-05-05 23:22 51.59194 -0.76453 5858 ft 209 kts 255°
2026-05-05 23:23 51.58352 -0.78428 5410 ft 218 kts 223°
2026-05-05 23:23 51.57027 -0.79577 4898 ft 227 kts 191°
2026-05-05 23:23 51.55409 -0.79634 4271 ft 240 kts 175°
2026-05-05 23:23 51.53736 -0.79504 4009 ft 235 kts 175°
2026-05-05 23:24 51.52125 -0.79396 3647 ft 235 kts 175°
2026-05-05 23:24 51.50515 -0.79188 3446 ft 232 kts 162°
2026-05-05 23:24 51.49221 -0.77905 3293 ft 208 kts 134°
2026-05-05 23:24 51.48275 -0.76323 3133 ft 187 kts 128°
2026-05-05 23:25 51.47732 -0.74023 2960 ft 155 kts 84°
2026-05-05 23:25 51.47747 -0.72884 2980 ft 158 kts 90°
2026-05-05 23:25 51.47688 -0.71129 2925 ft 158 kts 88°
2026-05-05 23:25 51.47677 -0.69374 2718 ft 153 kts 88°
2026-05-05 23:26 51.47677 -0.67675 2514 ft 153 kts 87°
2026-05-05 23:26 51.47683 -0.66001 2302 ft 148 kts 87°
2026-05-05 23:26 51.47687 -0.64351 2101 ft 149 kts 86°
2026-05-05 23:26 51.47693 -0.62681 1895 ft 149 kts 86°
2026-05-05 23:27 51.47698 -0.61022 1695 ft 148 kts 85°
2026-05-05 23:27 51.47708 -0.59381 1493 ft 149 kts 85°
2026-05-05 23:27 51.47717 -0.57668 1280 ft 153 kts 86°
2026-05-05 23:27 51.47724 -0.55976 1057 ft 151 kts 86°
2026-05-05 23:28 51.47726 -0.54278 845 ft 152 kts 85°
2026-05-05 23:28 51.47732 -0.52593 624 ft 144 kts 87°
2026-05-05 23:28 51.47733 -0.51084 457 ft 136 kts 86°
2026-05-05 23:28 51.47743 -0.49577 260 ft 133 kts 86°
2026-05-05 23:29 51.47747 -0.48095 116 ft 132 kts 85°
2026-05-05 23:29 51.47758 -0.46835 97 ft 80 kts 90°
2026-05-05 23:29 51.47758 -0.46218 96 ft 35 kts 94°
2026-05-05 23:29 51.47691 -0.45906 93 ft 25 kts 146°
2026-05-05 23:30 51.47595 -0.46035 96 ft 25 kts 266°
2026-05-05 23:30 51.47595 -0.46315 96 ft 25 kts 270°
2026-05-05 23:30 51.47594 -0.46603 96 ft 26 kts 270°
2026-05-05 23:30 51.47586 -0.46899 95 ft 27 kts 266°
2026-05-05 23:31 51.47576 -0.47204 93 ft 28 kts 271°
2026-05-05 23:31 51.47580 -0.47511 96 ft 26 kts 270°
2026-05-05 23:31 51.47580 -0.47791 96 ft 24 kts 270°
2026-05-05 23:31 51.47577 -0.48030 95 ft 20 kts 268°
2026-05-05 23:32 51.47575 -0.48258 92 ft 21 kts 271°
2026-05-05 23:32 51.47518 -0.48361 95 ft 13 kts 187°
2026-05-05 23:32 51.47423 -0.48361 92 ft 15 kts 180°
2026-05-05 23:32 51.47314 -0.48361 92 ft 17 kts 179°
2026-05-05 23:33 51.47191 -0.48358 95 ft 19 kts 178°
2026-05-05 23:33 51.47061 -0.48356 95 ft 18 kts 180°
2026-05-05 23:33 51.46941 -0.48350 96 ft 11 kts 161°
2026-05-05 23:33 51.46914 -0.48275 96 ft 7 kts 96°
2026-05-05 23:34 51.46915 -0.48238 94 ft 1 kts 89°
2026-05-05 23:34 51.46915 -0.48235 94 ft 0 kts 89°